Location: Lafig�re
(44.4503°N, 4.0357°E)
Time: 09:05:40
(UTC+00:00)

Tiros 1 - Pass Details

Date: 22 January 2021
Orbit: 630 x 664 km, 48.4° (Epoch: 07 March)

Event Time Altitude Azimuth Distance (km) Brightness Sun altitude
Rises 20:25:14 0° 270° (W) 2,919 11.4 -40.0°
Reaches altitude 10° 20:27:36 10° 275° (W) 2,009 10.3 -40.4°
Enters shadow 20:27:41 10° 275° (W) 1,981 10.3 -40.4°
